TimeCST,TemperatureF,Dew PointF,Humidity,Sea Level PressureIn,VisibilityMPH,Wind Direction,Wind SpeedMPH,Gust SpeedMPH,PrecipitationIn,Events,Conditions,WindDirDegrees,DateUTC
12:54 AM,28.0,21.0,75,30.19,9.0,NNW,6.9,-,0.00,Snow,Light Snow,340,2013-03-01 06:54:00
1:54 AM,28.0,21.9,78,30.19,9.0,NNW,8.1,-,0.00,Snow,Light Snow,330,2013-03-01 07:54:00
2:54 AM,27.0,21.9,81,30.19,6.0,NNW,8.1,-,0.00,Snow,Light Snow,340,2013-03-01 08:54:00
3:24 AM,26.6,21.2,80,30.15,7.0,NNW,8.1,-,N/A,Snow,Light Snow,340,2013-03-01 09:24:00
3:54 AM,27.0,21.9,81,30.19,5.0,NNW,9.2,-,0.00,Snow,Light Snow,340,2013-03-01 09:54:00
4:01 AM,27.0,21.9,81,30.16,5.0,NNW,10.4,-,0.00,Snow,Light Snow,340,2013-03-01 10:01:00
4:54 AM,27.0,21.0,78,30.20,6.0,NNW,9.2,-,0.00,Snow,Light Snow,340,2013-03-01 10:54:00
5:38 AM,27.0,21.0,78,30.17,6.0,North,9.2,-,0.00,Snow,Light Snow,350,2013-03-01 11:38:00
5:54 AM,27.0,21.0,78,30.21,5.0,North,8.1,-,0.00,Snow,Light Snow,350,2013-03-01 11:54:00
6:54 AM,26.1,21.0,81,30.22,5.0,North,10.4,-,0.00,Snow,Light Snow,360,2013-03-01 12:54:00
7:10 AM,26.1,21.0,81,30.19,2.5,North,8.1,-,0.00,Snow,Light Snow,360,2013-03-01 13:10:00
7:25 AM,26.1,21.0,81,30.19,3.0,North,9.2,-,0.00,Snow,Light Snow,350,2013-03-01 13:25:00
7:33 AM,26.1,21.0,81,30.19,2.5,North,10.4,-,0.00,Snow,Light Snow,360,2013-03-01 13:33:00
7:54 AM,26.1,21.0,81,30.24,2.0,North,9.2,-,0.00,Snow,Light Snow,360,2013-03-01 13:54:00
8:27 AM,26.1,21.0,81,30.21,2.0,North,10.4,-,0.00,Snow,Light Snow,360,2013-03-01 14:27:00
8:54 AM,26.1,21.0,81,30.25,2.0,North,12.7,-,0.00,Snow,Light Snow,360,2013-03-01 14:54:00
9:54 AM,27.0,21.9,81,30.27,2.0,North,11.5,-,0.00,Snow,Light Snow,360,2013-03-01 15:54:00
10:47 AM,28.0,21.0,75,30.24,5.0,NNE,12.7,-,0.01,Snow,Light Snow,20,2013-03-01 16:47:00
10:54 AM,28.0,21.0,75,30.27,5.0,NNE,13.8,-,0.01,Snow,Light Snow,20,2013-03-01 16:54:00
11:54 AM,28.9,21.0,72,30.28,7.0,NNE,10.4,-,0.00,Snow,Light Snow,20,2013-03-01 17:54:00
12:54 PM,28.9,19.9,69,30.27,9.0,NNE,11.5,-,0.00,Snow,Light Snow,30,2013-03-01 18:54:00
1:10 PM,30.0,19.9,66,30.23,9.0,NNE,11.5,-,0.00,,Overcast,20,2013-03-01 19:10:00
1:54 PM,28.9,19.0,67,30.27,10.0,NNE,11.5,-,0.00,,Overcast,20,2013-03-01 19:54:00
2:34 PM,28.9,19.0,67,30.24,10.0,North,9.2,-,N/A,,Overcast,10,2013-03-01 20:34:00
2:54 PM,28.9,18.0,64,30.28,10.0,NNE,11.5,-,N/A,,Overcast,20,2013-03-01 20:54:00
3:54 PM,28.0,19.0,69,30.30,5.0,North,10.4,-,0.00,Snow,Light Snow,10,2013-03-01 21:54:00
4:54 PM,27.0,19.0,72,30.30,5.0,North,10.4,-,0.00,Snow,Light Snow,360,2013-03-01 22:54:00
5:12 PM,28.0,18.0,66,30.27,9.0,NNE,10.4,-,0.00,Snow,Light Snow,20,2013-03-01 23:12:00
5:54 PM,27.0,16.0,63,30.32,9.0,North,10.4,-,0.00,,Overcast,10,2013-03-01 23:54:00
6:54 PM,27.0,15.1,61,30.34,9.0,North,11.5,-,0.00,Snow,Light Snow,360,2013-03-02 00:54:00
7:54 PM,26.1,16.0,66,30.35,9.0,North,9.2,-,0.00,Snow,Light Snow,360,2013-03-02 01:54:00
8:54 PM,26.1,15.1,63,30.35,10.0,North,9.2,-,0.00,,Overcast,350,2013-03-02 02:54:00
9:54 PM,26.1,15.1,63,30.35,10.0,NNE,8.1,-,N/A,,Overcast,20,2013-03-02 03:54:00
10:54 PM,26.1,15.1,63,30.35,10.0,North,8.1,-,N/A,,Overcast,360,2013-03-02 04:54:00
11:54 PM,26.1,16.0,66,30.35,10.0,North,8.1,-,N/A,,Overcast,360,2013-03-02 05:54:00